User: anonymous   Login
Location: Unspecified
(0.0000°N, 0.0000°E)
Time: 09:56:18
(UTC+00:00)
Language:

IGS 8B (DEMO) - Orbit

View from above orbital plane
View from above orbital plane
View from above satellite
View from above satellite

Ground track
Ground track

The orbit data is extracted from the following two-line orbital elements,

1 39062U 13002B   18205.00959810 0.00000100  00000-0  20238-5 0    08
2 39062  97.1914 326.2496 0004000 324.2725  35.7273 15.46443736    04
Epoch (UTC): 24 July 2018 00:13:49
Eccentricity: 0.0004000
inclination: 97.1914°
perigee height: 424 km
apogee height: 430 km
right ascension of ascending node: 326.2496°
argument of perigee: 324.2725°
revolutions per day: 15.46443736
mean anomaly at epoch: 35.7273°
orbit number at epoch: 0

The dashed part of the orbit path shows where the satellite is in the earth's shadow,  

DLR